Location: Shandelee
(41.8790°N, 74.8713°W)
Time: 13:39:49
(UTC+00:00)

CZ-2D R/B - Pass Details

Date: 29 October 2020
Orbit: 522 x 537 km, 97.4° (Epoch: 01 December)

Event Time Altitude Azimuth Distance (km) Brightness Sun altitude
Rises 23:39:56 0° 178° (S) 2,647 6.8 -19.7°
Reaches altitude 10° 23:42:04 10° 184° (S) 1,761 5.9 -20.1°
Maximum altitude 23:45:46 50° 261° (W) 676 4.1 -20.8°
Drops below altitude 10° 23:49:29 10° 337° (NNW) 1,769 6.2 -21.5°
Sets 23:51:39 0° 343° (NNW) 2,662 7.0 -21.9°
